Lid_Strength_Index
4 5 5 4 4 4 3 3 3 3 3 3 3 2 2 2 2 5 9 7 4 1 1 6 7 8 8 9 9 11 15 17 16 15 14 12 12 11 10 12 10 9 10 9 8
4 4 4 5 5 4 4 3 3 3 3 3 3 3 2 2 5 8 5 2 2 1 6 8 9 8 11 11 11 13 16 15 13 13 14 12 12 11 12 12 11 10 9 8 8
3 3 3 4 5 5 4 4 3 3 3 3 3 3 3 3 8 9 3 2 1 2 6 8 8 9 12 12 12 13 15 13 12 12 11 12 12 11 12 12 11 11 10 10 10
3 3 3 3 3 4 5 4 4 4 4 3 3 3 2 5 12 7 3 2 1 4 7 9 9 11 13 14 12 15 13 12 11 11 11 12 12 12 11 11 9 9 9 10 11
2 2 3 3 3 3 4 4 4 4 4 4 3 3 5 10 10 6 3 4 5 6 8 9 11 12 13 13 13 14 13 12 11 11 12 11 12 12 12 10 9 9 9 11 11
3 2 2 3 3 3 3 3 4 4 4 4 4 3 7 13 7 6 6 6 6 7 8 8 10 10 12 12 13 13 12 12 11 11 11 12 12 12 12 10 10 10 11 11 11
3 4 3 4 2 2 2 2 2 3 4 4 4 5 9 11 7 7 6 7 6 7 9 8 8 10 11 13 11 12 14 13 13 12 12 12 14 13 12 11 11 11 11 11 11
3 4 4 4 4 4 4 2 2 2 3 4 4 7 12 7 8 7 7 7 6 6 7 7 8 10 11 11 12 14 15 17 14 12 12 14 17 13 11 11 11 11 12 11 11
3 4 4 4 4 4 5 4 3 4 3 3 6 9 13 6 9 8 8 8 8 7 7 7 9 12 12 15 16 16 19 18 15 12 13 14 17 13 11 12 12 12 12 12 11
3 4 4 4 4 4 4 5 5 5 6 6 8 14 11 11 9 8 8 8 9 9 9 10 13 15 15 16 21 18 19 18 18 15 14 15 15 12 11 12 12 12 12 12 12
2 3 4 4 4 5 7 9 12 11 10 12 12 13 11 9 8 9 8 9 9 11 14 13 16 19 16 14 14 16 17 19 16 14 15 15 15 13 12 12 13 12 12 13 12
2 2 2 3 4 5 8 11 12 13 17 12 12 11 10 10 12 10 8 11 12 15 14 16 18 15 13 14 15 16 18 19 16 15 15 16 15 13 12 13 12 12 12 13 12
4 2 2 3 4 7 10 11 9 9 17 15 13 13 12 11 13 12 10 12 14 15 15 17 15 13 14 15 16 17 19 19 18 16 16 17 18 16 13 12 12 12 12 12 12
4 3 3 4 7 8 10 9 9 9 17 15 15 13 11 11 15 10 11 13 15 16 15 16 14 15 16 16 16 19 15 16 17 19 22 17 22 20 15 13 13 12 12 13 13
5 4 3 4 8 10 9 8 8 9 20 14 14 10 11 15 13 13 11 12 15 15 16 17 16 17 17 16 15 17 15 16 17 19 19 20 23 19 16 16 14 12 12 13 14
6 5 3 7 9 9 8 9 9 15 20 16 14 14 14 13 13 12 13 12 12 15 15 16 15 15 16 15 15 14 16 16 18 19 25 23 22 20 20 16 16 13 12 13 14
6 6 5 5 8 8 8 9 16 18 14 17 16 14 15 15 14 14 15 16 17 20 19 17 17 16 15 16 15 16 19 23 24 24 24 20 22 19 16 13 14 13 13 14 14
7 6 5 6 7 7 7 13 18 15 15 14 15 15 16 15 15 15 16 18 16 17 19 20 21 17 15 16 18 18 19 22 25 24 23 20 22 19 15 13 12 12 13 14 14
5 6 7 8 7 7 10 16 15 14 13 15 15 18 18 15 16 16 17 17 16 16 19 20 20 16 16 16 16 18 20 18 21 25 24 22 20 17 16 15 14 14 15 15 15
8 8 8 7 7 8 13 15 14 11 12 13 15 16 19 18 17 17 17 15 15 15 15 16 20 17 16 16 16 17 17 21 22 27 26 22 21 21 18 16 15 15 15 15 15
8 10 8 6 6 11 16 15 13 10 12 14 15 16 16 17 17 17 17 15 14 14 14 15 17 19 17 18 19 19 20 19 20 21 23 24 21 18 18 15 15 14 14 15 15
9 14 7 6 13 15 16 14 11 11 12 12 13 13 15 15 17 17 17 15 14 13 16 14 17 20 19 18 17 18 18 19 21 23 22 21 21 17 16 15 15 14 13 14 15
12 12 8 7 15 16 14 15 14 13 13 13 13 12 13 15 17 16 15 14 14 14 15 15 21 24 22 19 19 19 19 19 20 20 22 23 20 17 17 16 15 14 14 14 15
11 15 12 12 14 14 14 14 14 13 12 11 12 12 14 15 14 16 15 15 13 14 12 13 18 20 20 19 20 20 19 19 19 22 21 20 20 18 17 17 16 15 14 14 15
10 16 11 14 15 14 13 13 14 15 14 11 13 11 14 15 15 16 15 16 14 13 14 14 16 20 19 19 19 19 19 19 20 18 20 19 18 15 15 15 16 15 15 15 15
10 12 10 12 11 14 13 15 14 13 14 14 14 12 11 13 13 15 15 15 15 15 15 14 17 19 23 19 19 20 19 19 18 17 17 18 18 14 14 16 17 16 15 15 15
7 7 11 14 14 16 14 14 13 11 12 10 11 12 12 11 10 10 11 12 12 14 15 16 18 18 18 20 23 22 20 19 18 18 17 19 16 15 15 15 14 15 15 15 14